[[{"header":{"parameterUnit":"m.s-1","parameterCategory":1,"la1":30.2991,"la2":30.254,"lo1":-89.0895,"lo2":-89.0444,"dy":0.0017,"dx":0.0017,"nx":28,"ny":28,"refTime":"2023-07-23T03:00:00:Z","depth":0,"parameterNumber":2,"parameterNumberName":"U-component_of_WINDS"},"data":[0,0,0,0,0,0,0,0,0,0,0,0,0,0,0,0,0,0,0,0,0,0,0,0,0,0,0,0,0,0,0,0,0,0,0,0,0,0,0,0,0,0,0,0,0,0,0,0,0,0,0,0,0,0,0,0,0,0,-0.689,-0.6888,0,-0.6757,-0.6756,-0.6754,-0.6664,-0.6664,-0.6663,-0.6662,-0.6526,-0.6523,-0.652,0,0,0,0,0,0,0,0,0,0,0,0,0,-0.7066,-0.7063,-0.689,-0.6888,-0.6886,-0.6757,-0.6756,-0.6754,-0.6664,-0.6664,-0.6663,-0.6662,-0.6527,-0.6523,-0.652,0,0,0,0,0,0,0,0,0,0,0,0,0,-0.6967,-0.7063,-0.689,-0.6826,-0.6819,-0.6758,-0.6756,-0.6753,-0.6665,-0.6664,-0.6663,-0.6662,-0.6528,-0.6524,-0.6519,-0.651,0,0,-0.6505,-0.6503,0,0,0,0,0,0,0,0,-0.6973,-0.6961,-0.6837,-0.6831,-0.6823,-0.6726,-0.6768,-0.6672,-0.6665,-0.6723,-0.6662,-0.6661,-0.6593,-0.6583,-0.6561,-0.6504,-0.6498,-0.6505,-0.6502,-0.65,-0.6499,0,0,0,0,0,0,0,-0.698,-0.6966,-0.6837,-0.6836,-0.6827,-0.6805,-0.679,-0.6749,-0.6665,-0.6718,-0.6711,-0.6697,-0.6589,-0.6565,-0.6557,-0.6496,-0.6505,-0.6501,-0.6498,-0.6496,-0.6428,-0.6429,0,0,0,0,0,0,-0.6997,-0.6972,-0.6841,-0.6833,-0.6897,-0.6802,-0.6785,-0.6758,-0.6666,-0.665,-0.6698,-0.6693,-0.6573,-0.6562,-0.6552,-0.6537,-0.65,-0.6496,-0.6493,-0.6428,-0.6429,-0.643,0,0,0,0,0,0,-0.7001,-0.6986,-0.6847,-0.6901,-0.6882,-0.68,-0.6771,-0.6756,-0.6732,-0.665,-0.6635,-0.6689,-0.6572,-0.6558,-0.6522,-0.6531,-0.6494,-0.649,-0.6426,-0.6428,-0.6429,-0.6507,0,0,0,0,0,0,-0.7006,-0.6988,-0.6983,-0.6902,-0.6879,-0.6819,-0.6771,-0.6754,-0.6725,-0.6717,-0.6638,-0.6623,-0.657,-0.6529,-0.6518,-0.6524,-0.6486,-0.6425,-0.6427,-0.6429,-0.6503,-0.6511,-0.6517,0,0,0,0,0,-0.7013,-0.701,-0.6984,-0.6968,-0.6872,-0.682,-0.6807,-0.6746,-0.6726,-0.6721,-0.6669,-0.6626,-0.6532,-0.6526,-0.6512,-0.6518,-0.6424,-0.6427,-0.6429,-0.65,-0.6509,-0.6517,0,0,0,0,0,0,-0.7094,-0.6998,-0.6968,-0.6938,-0.6888,-0.6805,-0.6797,-0.6758,-0.6712,-0.6707,-0.6634,-0.6616,-0.6589,-0.6549,-0.6545,-0.6506,-0.6473,-0.6473,-0.6532,-0.6541,-0.6548,-0.6558,-0.6482,0,0,0,0,0,-0.7109,-0.7075,-0.6992,-0.6974,-0.6951,-0.6879,-0.6854,-0.6812,-0.6757,-0.6735,-0.668,-0.6628,-0.6587,-0.6561,-0.6519,-0.6497,-0.648,-0.6494,-0.6501,-0.6507,-0.6508,-0.6496,-0.6502,-0.6437,-0.6436,-0.6436,0,0,-0.7138,-0.7081,-0.7064,-0.6989,-0.6945,-0.6913,-0.6861,-0.6828,-0.6803,-0.6729,-0.6693,-0.6651,-0.6589,-0.6561,-0.6545,-0.6527,-0.6522,-0.651,-0.6516,-0.6513,-0.6499,-0.6505,-0.6511,-0.6438,-0.6438,-0.6437,0,0,-0.7175,-0.7128,-0.7109,-0.7067,-0.7002,-0.6954,-0.695,-0.6873,-0.6843,-0.6805,-0.675,-0.6719,-0.6649,-0.6608,-0.6578,-0.6603,-0.6563,-0.6591,-0.6628,-0.6617,-0.6622,-0.6627,-0.6637,-0.6642,-0.6591,-0.6592,-0.6592,0,-0.722,-0.7168,-0.7104,-0.7075,-0.7044,-0.6977,-0.6958,-0.692,-0.6844,-0.6825,-0.6806,-0.6719,-0.6672,-0.6634,-0.6641,-0.6618,-0.6612,-0.66,-0.6627,-0.663,-0.6633,-0.6643,-0.6647,-0.6596,-0.6595,-0.6595,-0.6594,0,-0.7228,-0.7193,-0.7185,-0.7115,-0.7084,-0.706,-0.6993,-0.6968,-0.693,-0.6885,-0.6848,-0.679,-0.6736,-0.6723,-0.6684,-0.6681,-0.6672,-0.6641,-0.6607,-0.6645,-0.6653,-0.6655,-0.6601,-0.66,-0.6599,-0.6598,0,0,-0.7311,-0.7208,-0.7206,-0.7175,-0.7099,-0.7071,-0.7045,-0.6992,-0.6974,-0.6925,-0.6902,-0.6846,-0.6817,-0.6783,-0.6739,-0.673,-0.6756,-0.67,-0.6697,-0.6714,-0.6751,-0.6776,-0.6781,-0.6729,-0.6729,-0.6729,-0.6757,0,-0.7338,-0.7288,-0.723,-0.72,-0.7168,-0.7105,-0.7082,-0.7034,-0.6992,-0.6959,-0.6912,-0.6874,-0.6838,-0.6818,-0.6805,-0.6755,-0.6763,-0.6752,-0.6708,-0.6707,-0.6727,-0.6785,-0.681,-0.6839,-0.6759,-0.676,-0.676,0,-0.7363,-0.7318,-0.7285,-0.7215,-0.7199,-0.718,-0.7128,-0.7097,-0.7042,-0.7012,-0.6976,-0.6929,-0.69,-0.687,-0.6829,-0.6823,-0.6802,-0.6775,-0.6774,-0.6769,-0.6737,-0.6782,-0.6847,-0.6852,-0.6764,-0.6764,-0.6763,0,-0.743,-0.7361,-0.7333,-0.7307,-0.7224,-0.7212,-0.7177,-0.7121,-0.7094,-0.7049,-0.7031,-0.6984,-0.6958,-0.6922,-0.6865,-0.6848,-0.6831,-0.6795,-0.6806,-0.6808,-0.6806,-0.6807,-0.687,-0.679,-0.679,-0.679,-0.679,0,-0.7466,-0.7449,-0.7362,-0.7345,-0.7324,-0.7259,-0.724,-0.7199,-0.715,-0.7125,-0.7067,-0.7044,-0.6969,-0.6938,-0.6893,-0.6868,-0.6856,-0.6832,-0.682,-0.6837,-0.6841,-0.6823,-0.682,-0.6791,-0.6791,-0.6791,-0.6791,0,-0.7537,-0.7478,-0.7444,-0.7368,-0.7349,-0.7338,-0.7273,-0.7255,-0.721,-0.7179,-0.7168,-0.7097,-0.7058,-0.6997,-0.6939,-0.6909,-0.6892,-0.6871,-0.6911,-0.6904,-0.6919,-0.6919,-0.6973,-0.6978,-0.6895,-0.6896,-0.6897,0,-0.7565,-0.7551,-0.7475,-0.7454,-0.7421,-0.7388,-0.736,-0.7296,-0.727,-0.7208,-0.7197,-0.7154,-0.7115,-0.7056,-0.7,-0.6956,-0.6935,-0.6957,-0.6928,-0.6947,-0.6938,-0.694,-0.6939,-0.6965,-0.6966,-0.6967,-0.6968,0,-0.7622,-0.7594,-0.7557,-0.7511,-0.748,-0.744,-0.7398,-0.7384,-0.731,-0.7284,-0.7244,-0.7215,-0.7157,-0.7115,-0.7064,-0.7028,-0.6987,-0.6977,-0.6978,-0.6996,-0.702,-0.7009,-0.6931,-0.6976,-0.6975,-0.6975,-0.6974,-0.6974,-0.7673,-0.7658,-0.7603,-0.7565,-0.7526,-0.7488,-0.7468,-0.7421,-0.7387,-0.7335,-0.7299,-0.7262,-0.7209,-0.7136,-0.7103,-0.7073,-0.7055,-0.7055,-0.7055,-0.7057,-0.7064,-0.7024,-0.7063,-0.7063,-0.7062,-0.7062,-0.7062,0,-0.7729,-0.769,-0.7656,-0.7599,-0.7569,-0.7532,-0.7484,-0.7462,-0.743,-0.7384,-0.7348,-0.7303,-0.7263,-0.7205,-0.716,-0.7148,-0.7128,-0.7139,-0.7139,-0.7132,-0.7082,-0.7087,-0.7156,-0.7156,-0.7156,-0.7156,-0.7156,-0.7156,-0.7754,-0.7728,-0.7694,-0.7648,-0.761,-0.7573,-0.7549,-0.7514,-0.7478,-0.743,-0.7397,-0.7359,-0.7309,-0.7261,-0.7223,-0.7207,-0.7194,-0.7212,-0.719,-0.7144,-0.7136,-0.7127,-0.7132,-0.7209,-0.7209,-0.7243,-0.7243,-0.7243]},{"header":{"parameterUnit":"m.s-1","parameterCategory":1,"la1":30.2991,"la2":30.254,"lo1":-89.0895,"lo2":-89.0444,"dy":0.0017,"dx":0.0017,"nx":28,"ny":28,"refTime":"2023-07-23T03:00:00:Z","depth":0,"parameterNumber":3,"parameterNumberName":"V-component_of_WINDS"},"data":[0,0,0,0,0,0,0,0,0,0,0,0,0,0,0,0,0,0,0,0,0,0,0,0,0,0,0,0,0,0,0,0,0,0,0,0,0,0,0,0,0,0,0,0,0,0,0,0,0,0,0,0,0,0,0,0,0,0,3.4121,3.4121,0,3.4138,3.4138,3.4138,3.4153,3.4153,3.4153,3.4153,3.4168,3.4168,3.4168,0,0,0,0,0,0,0,0,0,0,0,0,0,3.4098,3.4099,3.4121,3.4121,3.4122,3.4138,3.4138,3.4138,3.4153,3.4153,3.4153,3.4153,3.4168,3.4168,3.4168,0,0,0,0,0,0,0,0,0,0,0,0,0,3.4111,3.4099,3.4121,3.4131,3.4132,3.4138,3.4138,3.4138,3.4153,3.4153,3.4153,3.4154,3.4168,3.4168,3.4168,3.4165,0,0,3.4169,3.4169,0,0,0,0,0,0,0,0,3.411,3.4112,3.4129,3.413,3.4131,3.4144,3.4135,3.4147,3.4153,3.4145,3.4153,3.4154,3.4159,3.416,3.4163,3.4166,3.4166,3.4169,3.4169,3.417,3.417,0,0,0,0,0,0,0,3.4109,3.4111,3.4128,3.4129,3.4131,3.4133,3.4135,3.4138,3.415,3.4146,3.4147,3.4149,3.416,3.4162,3.4163,3.4166,3.4169,3.417,3.417,3.417,3.4165,3.4164,0,0,0,0,0,0,3.4107,3.411,3.4127,3.4128,3.4121,3.4133,3.4136,3.4139,3.415,3.4152,3.4148,3.4149,3.4162,3.4163,3.4164,3.4159,3.417,3.417,3.417,3.4165,3.4164,3.4164,0,0,0,0,0,0,3.4107,3.4109,3.4126,3.412,3.4122,3.4134,3.4137,3.414,3.4142,3.4152,3.4154,3.4149,3.4162,3.4163,3.4164,3.416,3.417,3.417,3.4165,3.4165,3.4164,3.415,0,0,0,0,0,0,3.4106,3.4109,3.4108,3.4119,3.4122,3.4128,3.4137,3.414,3.4143,3.4144,3.4153,3.4155,3.4162,3.4164,3.4164,3.416,3.4171,3.4166,3.4165,3.4164,3.4151,3.4149,3.4148,0,0,0,0,0,3.4105,3.4104,3.4108,3.411,3.4123,3.4127,3.4129,3.4138,3.4143,3.4142,3.4148,3.4155,3.416,3.4164,3.4165,3.4161,3.4166,3.4165,3.4164,3.4152,3.415,3.4148,0,0,0,0,0,0,3.4092,3.4105,3.4111,3.4113,3.4119,3.413,3.4129,3.4136,3.414,3.4141,3.4151,3.4153,3.4152,3.4157,3.416,3.4157,3.4164,3.4163,3.4154,3.4152,3.415,3.4149,3.4171,0,0,0,0,0,3.4089,3.4093,3.4104,3.4105,3.4108,3.4118,3.412,3.4127,3.4133,3.4135,3.4142,3.4147,3.4149,3.4151,3.4154,3.4152,3.4153,3.4149,3.4148,3.4146,3.4145,3.4142,3.414,3.4162,3.4162,3.4162,0,0,3.4083,3.4091,3.4093,3.4102,3.4108,3.411,3.412,3.4123,3.4124,3.4136,3.4137,3.4141,3.4147,3.4146,3.4146,3.415,3.414,3.4145,3.4144,3.4144,3.4141,3.4139,3.4137,3.4161,3.4161,3.4161,0,0,3.4074,3.4081,3.4082,3.4087,3.4095,3.4101,3.4101,3.4111,3.4114,3.4116,3.4124,3.4125,3.413,3.4133,3.4136,3.4125,3.4131,3.4126,3.4117,3.4114,3.4112,3.4111,3.4105,3.4103,3.4125,3.4125,3.4125,0,3.4066,3.4071,3.4081,3.4083,3.4085,3.4096,3.4096,3.41,3.4108,3.4109,3.4114,3.4119,3.4124,3.4122,3.412,3.4122,3.412,3.4125,3.4112,3.411,3.4109,3.4104,3.4102,3.4124,3.4124,3.4125,3.4125,0,3.4059,3.4062,3.4061,3.4069,3.4072,3.4073,3.4082,3.4083,3.4089,3.4094,3.4094,3.41,3.4104,3.4104,3.4109,3.4102,3.4104,3.411,3.4117,3.4106,3.4101,3.41,3.4123,3.4124,3.4124,3.4124,0,0,3.4043,3.4055,3.4055,3.4057,3.4066,3.4068,3.4068,3.4072,3.4072,3.4077,3.4076,3.4079,3.4084,3.4086,3.4092,3.4089,3.4078,3.4095,3.4095,3.4091,3.4069,3.4064,3.4061,3.4082,3.4082,3.4082,3.4068,0,3.4034,3.4036,3.4044,3.4043,3.4045,3.4054,3.4054,3.4058,3.4063,3.4064,3.4068,3.407,3.4077,3.4078,3.4076,3.408,3.4074,3.4082,3.408,3.408,3.4077,3.4059,3.4055,3.4041,3.4066,3.4066,3.4066,0,3.4025,3.4029,3.4028,3.4035,3.4036,3.4036,3.4039,3.404,3.4044,3.4047,3.4049,3.4056,3.4054,3.4061,3.4058,3.4063,3.4063,3.4065,3.4064,3.4064,3.4072,3.4057,3.4037,3.4035,3.4063,3.4063,3.4064,0,3.4011,3.4016,3.4016,3.4018,3.4027,3.4026,3.4029,3.4034,3.4035,3.4037,3.4037,3.4039,3.404,3.404,3.4046,3.4051,3.4041,3.405,3.4043,3.4042,3.404,3.404,3.4018,3.4041,3.4041,3.4041,3.4042,0,3.4001,3.3999,3.401,3.401,3.4007,3.4016,3.4013,3.4017,3.4021,3.402,3.4028,3.4026,3.4035,3.4034,3.4038,3.4034,3.4034,3.4035,3.4036,3.4034,3.4034,3.4034,3.4034,3.4041,3.4041,3.4041,3.4041,0,3.3985,3.3993,3.3992,3.4,3.4001,3.3999,3.4005,3.4004,3.4008,3.4007,3.4007,3.4014,3.4013,3.4019,3.4019,3.4022,3.4014,3.4018,3.4013,3.4014,3.4006,3.4006,3.3982,3.3979,3.4005,3.4005,3.4005,0,3.3978,3.3977,3.3984,3.3984,3.3987,3.3987,3.3988,3.3996,3.3996,3.3999,3.3997,3.3997,3.3997,3.3995,3.3999,3.3998,3.4001,3.3992,3.4001,3.3998,3.3999,3.3998,3.3997,3.3991,3.399,3.399,3.399,0,3.3963,3.3966,3.3968,3.397,3.397,3.3972,3.3975,3.3974,3.3982,3.3981,3.3981,3.3981,3.398,3.3979,3.3979,3.3981,3.3985,3.3987,3.3985,3.3982,3.3979,3.3979,3.4007,3.3988,3.3988,3.3988,3.3988,3.3988,3.3951,3.3949,3.3953,3.3954,3.3956,3.3958,3.3956,3.396,3.396,3.3961,3.3965,3.3962,3.3964,3.3965,3.3965,3.3963,3.3966,3.3964,3.3963,3.3962,3.396,3.398,3.3963,3.3963,3.3963,3.3963,3.3963,0,3.3935,3.3938,3.3938,3.3941,3.394,3.3946,3.3948,3.3947,3.3945,3.3947,3.3946,3.3944,3.3942,3.3945,3.3944,3.3941,3.3943,3.394,3.394,3.3939,3.3958,3.3959,3.3938,3.3938,3.3938,3.3938,3.3938,3.3938,3.3927,3.3925,3.3928,3.3925,3.3928,3.3926,3.3926,3.3927,3.3928,3.3925,3.3924,3.3926,3.3927,3.3925,3.3923,3.3924,3.3922,3.3918,3.3919,3.3936,3.3938,3.3941,3.3942,3.3918,3.3918,3.3901,3.3901,3.3901]}]]